Flag for Norway Weather past 2 weeks in Stavanger, Norway

Now
50 °F

Passing clouds.


Feels Like: 48 °F
Forecast: 52 / 57 °F
Wind: 6 mph from Southeast

Location: Stavanger / Sola

Current Time: Aug 1, 2015 at 3:39:21 AM

Latest Report: Aug 1, 2015 at 2:50 AM


Visibility: N/A

Pressure: 29.95 "Hg

Humidity: 82%

Dew point: 45 °F

Location of StavangerLocation

Historic Weather in Stavanger — Graph

°F

Stavanger temperature yesterday

Maximum temperature yesterday: 57 °F (at 1:50 PM)
Minimum temperature yesterday: 50 °F (at 4:50 AM)
Average temperature yesterday: 54 °F

Past Weeks' High & Low Weather Summary

 TemperatureHumidityPressure
High70 °F (Jul 17, 1:50 PM)100% (Jul 18, 6:20 AM)30.09 "Hg (Jul 18, 6:20 AM)
Low45 °F (Jul 17, 4:50 AM)37% (Jul 17, 5:50 PM)29.39 "Hg (Jul 29, 9:20 AM)
Average57 °F80%29.70 "Hg
* Reported Jul 17 1:20 AM — Aug 1 1:50 AM, Stavanger, Weather by CustomWeather, © 2015

Note: Actual official high and low records may vary slightly from our data, if they occured in-between our weather recording intervals... More about our weather records

Advertising

Stavanger weather history for previous 24 hours

 ConditionsComfort  
Time TempWeatherWind HumidityBarometerVisibility
1:50 AM
Sat, Aug 1
48 °FPartly cloudy.3 mph87%29.98 "HgN/A
12:50 AM50 °FPartly cloudy.3 mph82%29.98 "HgN/A
12:20 AM52 °FPassing clouds.3 mph77%29.98 "HgN/A
11:50 PM
Fri, Jul 31
52 °FPartly cloudy.3 mph77%29.98 "HgN/A
11:20 PM52 °FPassing clouds.3 mph77%29.98 "HgN/A
10:50 PM52 °FScattered clouds.2 mph77%29.98 "HgN/A
10:20 PM52 °FScattered clouds.1 mph72%29.98 "HgN/A
9:50 PM54 °FScattered clouds.2 mph67%29.98 "HgN/A
9:20 PM54 °FScattered clouds.3 mph72%29.98 "HgN/A
8:50 PM54 °FScattered clouds.6 mph72%29.98 "HgN/A
8:20 PM55 °FScattered clouds.7 mph67%29.98 "HgN/A
7:50 PM55 °FScattered clouds.9 mph67%29.98 "HgN/A
7:20 PM55 °FScattered clouds.8 mph67%29.98 "HgN/A
6:50 PM57 °FScattered clouds.9 mph63%29.98 "HgN/A
6:20 PM55 °FScattered clouds.10 mph67%29.98 "HgN/A
5:50 PM55 °FScattered clouds.12 mph67%29.98 "HgN/A
5:20 PM55 °FScattered clouds.14 mph67%29.98 "HgN/A
4:50 PM57 °FScattered clouds.13 mph72%29.98 "HgN/A
4:20 PM57 °FScattered clouds.12 mph67%29.98 "HgN/A
3:50 PM57 °FScattered clouds.14 mph67%29.98 "HgN/A
3:20 PM57 °FScattered clouds.15 mph67%29.98 "HgN/A
2:50 PM57 °FScattered clouds.15 mph67%29.95 "HgN/A
2:20 PM57 °FPartly sunny.14 mph63%29.95 "HgN/A
1:50 PM57 °FPartly sunny.15 mph63%29.95 "HgN/A
1:20 PM55 °FPartly sunny.15 mph67%29.95 "HgN/A
12:50 PM55 °FPartly sunny.15 mph67%29.95 "HgN/A
12:20 PM55 °FPartly sunny.14 mph72%29.95 "HgN/A
11:50 AM55 °FPartly sunny.16 mph67%29.95 "HgN/A
11:20 AM55 °FPartly sunny.16 mph67%29.95 "HgN/A
10:50 AM55 °FBroken clouds.18 mph67%29.95 "HgN/A
10:20 AM54 °FBroken clouds.14 mph77%29.92 "HgN/A
9:20 AM55 °FPartly sunny.15 mph72%29.92 "HgN/A
8:50 AM54 °FPartly sunny.8 mph82%29.92 "HgN/A
8:20 AM52 °FBroken clouds.10 mph82%29.92 "HgN/A
7:50 AM52 °FBroken clouds.10 mph82%29.89 "HgN/A
7:20 AM52 °FPartly sunny.12 mph82%29.89 "HgN/A
6:50 AM50 °FDrizzle. Broken clouds.14 mph88%29.89 "HgN/A
6:20 AM52 °FScattered showers. Partly cloudy.12 mph82%29.89 "HgN/A
5:50 AM52 °FPartly cloudy.10 mph82%29.89 "HgN/A
4:50 AM50 °FPassing clouds.16 mph88%29.86 "Hg5 mi
3:50 AM52 °FDrizzle. Fog.15 mph88%29.86 "Hg4 mi
Weather by CustomWeather, © 2015

See weather overviewHow to use our weather pages